sat.trackr.live / text

‹ back to catalog

STARLINK-11536 [DTC]

NORAD 62563 · 2025-006K

PAYLOAD ACTIVE UNKNOWN

§ Identity

Operator
Country
US
Launch date
2025-01-10
Launch site
AFETR
Launch vehicle
Mass (kg)
RCS (m²)

Purposes: comms

External: N2YO · Heavens-Above · Gunter

§ Orbital elements

Epoch: 2026-09-21T15:37:42.271680Z

Period
91.67 min
Inclination
43.0019°
Eccentricity
0.0002042
Mean motion
15.70837405 rev/d
Perigee alt
355.1 km
Apogee alt
357.9 km
Semi-major
6,734.6 km
B*
1.1787e-3
RAAN
38.5594°
Arg perigee
266.3838°
Mean anomaly
93.6796°
Rev number
9,742

§ Raw data

STARLINK-11536 [DTC]1 62563U 25006K   26264.65118370  .00153607  00000+0  11787-2 0  99932 62563  43.0019  38.5594 0002042 266.3838  93.6796 15.70837405 97421

JSON: /api/v1/satellites/62563 · /tle

For live sub-satellite position, see the globe view (requires WebGL).

§ Visibility from observer

Set your observer location to see the next 7 days of passes ≥ 10°. The values pass through the URL so the page stays shareable.

No JS? Fill the form by hand. The geolocation button needs JavaScript.